time_stamp(utc),avg(mph),gust(mph),direction(deg),12m_air_temp(f),sonic_u(cm/s),sonic_v(cm/s),sonic_w(cm/s),pressure,2m_air_temp(f),pyranometer(W/m^2)
"2019-09-17 00:03:57+00",8.0,9.0,,72.4,358,-34,8,1015.87,72.2,0
"2019-09-17 00:08:57+00",8.1,9.1,,72.2,361,-25,3,1015.85,72.1,0
"2019-09-17 00:13:57+00",7.4,8.4,,72.2,326,14,23,1015.86,72.1,0
"2019-09-17 00:18:57+00",8.8,10.8,,72.2,395,-2,17,1015.83,72,0
"2019-09-17 00:23:57+00",8.6,10.6,,72.1,387,-21,11,1015.66,71.9,0
"2019-09-17 00:28:57+00",8.8,9.8,,72.1,387,-12,10,1015.59,71.9,0
"2019-09-17 00:33:57+00",7.3,8.3,,72.1,324,-10,13,1015.61,71.9,0
"2019-09-17 00:38:57+00",9.0,10.0,,72.1,396,-36,12,1015.7,71.8,0
"2019-09-17 00:43:57+00",8.9,9.9,,72.1,399,-31,15,1015.72,71.8,0
"2019-09-17 00:48:57+00",9.2,10.2,,72.1,401,-45,7,1015.71,71.8,0
"2019-09-17 00:53:57+00",8.5,9.5,,72.1,384,-32,17,1015.73,71.7,0
"2019-09-17 00:58:57+00",8.5,9.5,,72,366,-57,16,1015.71,71.7,0
"2019-09-17 01:03:57+00",8.1,9.1,,71.9,347,-62,17,1015.81,71.6,0
"2019-09-17 01:08:57+00",8.0,10.0,,71.8,336,-103,-2,1015.87,71.4,0
"2019-09-17 01:13:57+00",7.7,8.7,,71.8,334,-37,11,1015.91,71.3,0
"2019-09-17 01:18:57+00",7.7,8.7,,71.7,341,-43,6,1015.96,71.3,0
"2019-09-17 01:23:57+00",8.1,9.1,,71.8,349,-81,8,1015.93,71.2,0
"2019-09-17 01:28:57+00",8.9,9.9,,71.8,394,-39,8,1015.97,71.1,0
"2019-09-17 01:33:57+00",9.4,10.4,,71.8,412,-31,7,1016.02,71.1,0
"2019-09-17 01:38:57+00",8.2,10.2,,71.8,362,-27,8,1015.97,71.1,0
"2019-09-17 01:43:57+00",7.6,8.6,,71.7,335,6,11,1015.96,71.2,0
"2019-09-17 01:48:57+00",8.7,9.7,,71.8,391,19,9,1015.92,71.1,0
"2019-09-17 01:53:57+00",10.2,11.2,,71.9,458,49,22,1015.95,71.1,0
"2019-09-17 01:58:57+00",11.3,12.3,,71.8,493,87,16,1016.02,71.2,0
"2019-09-17 02:03:57+00",8.8,9.8,,71.8,395,29,26,1016.06,71.2,0
"2019-09-17 02:08:57+00",9.8,10.8,,71.8,430,61,20,1016.11,71.2,0
"2019-09-17 02:13:57+00",8.9,9.9,,71.7,394,26,22,1016.19,71.2,0
"2019-09-17 02:18:57+00",10.2,11.2,,71.6,454,62,27,1016.11,71.1,0
"2019-09-17 02:23:57+00",9.9,11.9,,71.6,443,26,25,1016.16,71.1,0
"2019-09-17 02:28:57+00",9.7,10.7,,71.7,436,-19,14,1016.28,71.1,0
"2019-09-17 02:33:57+00",7.6,8.6,,71.6,335,-28,8,1016.21,71.1,0
"2019-09-17 02:38:57+00",8.3,9.3,,71.6,363,-46,11,1016.11,71.1,0
"2019-09-17 02:43:57+00",8.3,10.3,,71.7,352,-73,9,1016.15,71.1,0
"2019-09-17 02:48:57+00",9.9,10.9,,71.7,441,-40,16,1016.17,71.2,0
"2019-09-17 02:53:57+00",9.3,10.3,,71.8,409,-61,10,1016.17,71.3,0
"2019-09-17 02:58:57+00",9.0,10.0,,71.8,395,-32,11,1016.28,71.3,0
"2019-09-17 03:03:57+00",10.2,11.2,,71.9,448,-48,7,1016.23,71.4,0
"2019-09-17 03:08:57+00",9.2,10.2,,71.8,407,13,21,1016.31,71.4,0
"2019-09-17 03:13:57+00",9.3,10.3,,71.7,415,23,20,1016.28,71.5,0
"2019-09-17 03:18:57+00",11.0,12.0,,71.5,490,7,14,1016.29,71.4,0
"2019-09-17 03:23:57+00",9.8,10.8,,71.5,432,-49,6,1016.28,71.3,0
"2019-09-17 03:28:57+00",8.1,9.1,,71.5,355,-29,10,1016.34,71.2,0
"2019-09-17 03:33:57+00",9.5,11.5,,71.4,417,-45,10,1016.3,71.1,0
"2019-09-17 03:38:57+00",9.6,11.6,,71.4,421,-21,20,1016.3,71.1,0
"2019-09-17 03:43:57+00",8.3,10.3,,71.4,365,-9,22,1016.43,71,0
"2019-09-17 03:48:57+00",8.2,10.2,,71.4,365,-2,13,1016.44,71,0
"2019-09-17 03:53:57+00",6.8,7.8,,71.4,308,4,11,1016.46,71,0
"2019-09-17 03:58:57+00",8.1,9.1,,71.4,361,3,14,1016.45,70.9,0
"2019-09-17 04:03:57+00",8.4,9.4,,71.5,367,60,17,1016.51,70.9,0
"2019-09-17 04:08:57+00",7.6,8.6,,71.5,332,74,18,1016.5,70.9,0
"2019-09-17 04:13:57+00",8.4,9.4,,71.5,368,66,22,1016.47,70.9,0
"2019-09-17 04:18:57+00",7.1,9.1,,71.5,314,40,17,1016.5,70.9,0
"2019-09-17 04:23:57+00",7.9,8.9,,71.5,347,40,15,1016.48,71,0
"2019-09-17 04:28:57+00",8.6,9.6,,71.5,387,33,16,1016.56,71,0
"2019-09-17 04:33:57+00",8.1,10.1,,71.5,355,36,16,1016.51,71,0
"2019-09-17 04:38:57+00",6.6,7.6,,71.5,288,10,10,1016.57,71.1,0
"2019-09-17 04:43:57+00",7.4,8.4,,71.5,321,45,17,1016.56,71.1,0
"2019-09-17 04:48:57+00",7.3,8.3,,71.5,316,55,24,1016.6,71.1,0
"2019-09-17 04:53:57+00",8.6,9.6,,71.4,381,47,15,1016.6,71.2,0
"2019-09-17 04:58:57+00",8.9,9.9,,71.4,397,31,12,1016.57,71.1,0
"2019-09-17 05:03:57+00",9.9,10.9,,71.4,442,44,15,1016.52,71.2,0
"2019-09-17 05:08:57+00",10.3,11.3,,71.4,455,27,20,1016.5,71.1,0
"2019-09-17 05:13:57+00",11.6,12.6,,71.3,515,76,24,1016.48,71.1,0
"2019-09-17 05:18:57+00",12.0,14.0,,71.3,536,54,18,1016.49,71.1,0
"2019-09-17 05:23:57+00",11.2,12.2,,71.3,489,110,35,1016.45,71.1,0
"2019-09-17 05:28:57+00",13.6,14.6,,71.2,592,154,25,1016.42,70.9,0
"2019-09-17 05:33:57+00",10.1,12.1,,71.2,459,62,22,1016.5,70.8,0
"2019-09-17 05:38:57+00",11.0,13.0,,71.1,485,97,17,1016.55,70.7,0
"2019-09-17 05:43:57+00",11.0,13.0,,71.1,486,84,7,1016.63,70.7,0
"2019-09-17 05:48:57+00",11.9,13.9,,71.1,533,76,31,1016.54,70.7,0
"2019-09-17 05:53:57+00",9.7,11.7,,71.1,421,127,23,1016.62,70.7,0
"2019-09-17 05:58:57+00",11.6,12.6,,71.1,523,63,24,1016.62,70.7,0
"2019-09-17 06:03:57+00",11.6,13.6,,71,507,131,23,1016.61,70.7,0
"2019-09-17 06:08:57+00",13.7,15.7,,71.1,603,119,24,1016.69,70.6,0
"2019-09-17 06:13:57+00",11.9,13.9,,71.1,519,131,22,1016.63,70.6,0
"2019-09-17 06:18:57+00",12.8,14.8,,71.2,553,158,24,1016.64,70.6,0
"2019-09-17 06:23:57+00",12.9,14.9,,71.2,563,127,28,1016.73,70.6,0
"2019-09-17 06:28:57+00",10.4,12.4,,71.1,449,117,23,1016.73,70.6,0
"2019-09-17 06:33:57+00",10.9,12.9,,71.1,466,159,28,1016.77,70.5,0
"2019-09-17 06:38:57+00",16.1,18.1,,71.1,683,247,20,1016.74,70.4,0
"2019-09-17 06:43:57+00",12.6,17.6,,71.1,538,180,21,1016.71,70.5,0
"2019-09-17 06:48:57+00",12.6,14.6,,71.1,556,148,33,1016.64,70.4,0
"2019-09-17 06:53:57+00",16.2,18.2,,71.1,699,245,22,1016.6,70.3,0
"2019-09-17 06:58:57+00",15.4,16.4,,71,676,160,34,1016.65,70.3,0
"2019-09-17 07:03:57+00",15.1,18.1,,71,658,184,41,1016.67,70.2,0
"2019-09-17 07:08:57+00",15.0,18.0,,71.1,646,221,32,1016.69,70.1,0
"2019-09-17 07:13:57+00",14.6,17.6,,71.1,616,234,28,1016.63,70,0
"2019-09-17 07:18:57+00",14.9,17.9,,71,651,177,36,1016.57,69.9,0
"2019-09-17 07:23:57+00",16.1,18.1,,70.9,696,213,32,1016.59,69.8,0
"2019-09-17 07:28:57+00",13.7,15.7,,70.8,581,200,20,1016.55,69.8,0
"2019-09-17 07:33:57+00",14.5,16.5,,70.5,597,263,32,1016.56,69.6,0
"2019-09-17 07:38:57+00",12.9,15.9,,70.5,549,222,33,1016.54,69.5,0
"2019-09-17 07:43:57+00",11.9,14.9,,70.4,495,201,22,1016.56,69.5,0
"2019-09-17 07:48:57+00",12.2,14.2,,70.3,536,172,31,1016.56,69.4,0
"2019-09-17 07:53:57+00",13.3,15.3,,70.4,555,221,27,1016.57,69.3,0
"2019-09-17 07:58:57+00",13.6,16.6,,70.4,591,201,34,1016.5,69.3,0
"2019-09-17 08:03:57+00",13.0,15.0,,70.4,536,224,38,1016.46,69.4,0
"2019-09-17 08:08:57+00",15.0,18.0,,70.3,625,276,22,1016.43,69.3,0
"2019-09-17 08:13:57+00",13.1,16.1,,70.3,524,270,22,1016.45,69.3,0
"2019-09-17 08:18:57+00",15.5,18.5,,70.4,629,292,28,1016.41,69.3,0
"2019-09-17 08:23:57+00",13.7,17.7,,70.2,544,281,31,1016.45,69.3,0
"2019-09-17 08:28:57+00",12.8,14.8,,70.3,521,246,23,1016.46,69.3,0
"2019-09-17 08:33:57+00",16.1,19.1,,70.2,641,334,24,1016.49,69.3,0
"2019-09-17 08:38:57+00",15.1,19.1,,70.2,628,262,48,1016.51,69.4,0
"2019-09-17 08:43:57+00",15.4,18.4,,70.2,653,257,15,1016.53,69.5,0
"2019-09-17 08:48:57+00",15.6,18.6,,70.1,615,326,36,1016.51,69.4,0
"2019-09-17 08:53:57+00",17.1,19.1,,70.3,682,339,32,1016.62,69.4,0
"2019-09-17 08:58:57+00",16.5,19.5,,70.2,628,391,21,1016.7,69.4,0
"2019-09-17 09:03:57+00",17.8,20.8,,70.2,648,449,26,1016.8,69.4,0
"2019-09-17 09:08:57+00",16.2,20.2,,70,634,348,21,1016.78,69.3,0
"2019-09-17 09:13:57+00",17.0,20.0,,69.8,684,316,46,1016.85,69.1,0
"2019-09-17 09:18:57+00",17.5,19.5,,69.7,733,298,38,1016.86,69.1,0
"2019-09-17 09:23:57+00",15.3,18.3,,69.5,644,249,33,1016.79,69,0
"2019-09-17 09:28:57+00",18.6,22.6,,69.5,801,273,32,1016.86,68.9,0
"2019-09-17 09:33:57+00",17.0,21.0,,69.4,721,279,35,1016.91,68.8,0
"2019-09-17 09:38:57+00",18.4,20.4,,69.3,788,282,36,1016.93,68.6,0
"2019-09-17 09:43:57+00",16.6,19.6,,69.2,705,280,36,1016.99,68.6,0
"2019-09-17 09:48:57+00",19.8,21.8,,69.1,820,366,21,1017.03,68.4,0
"2019-09-17 09:53:57+00",15.3,19.3,,69,630,285,34,1017.05,68.3,0
"2019-09-17 09:58:57+00",15.6,21.6,,69,666,243,45,1017.14,68.3,0
"2019-09-17 10:03:57+00",16.2,20.2,,68.9,714,218,46,1017.12,68.2,0
"2019-09-17 10:08:57+00",16.7,18.7,,68.9,729,241,38,1017.16,68.2,0
"2019-09-17 10:13:57+00",17.1,22.1,,68.8,702,317,46,1017.16,68.1,0
"2019-09-17 10:18:57+00",19.1,21.1,,68.8,748,406,49,1017.24,67.9,0
"2019-09-17 10:23:57+00",20.8,23.8,,68.8,807,465,45,1017.36,67.9,0
"2019-09-17 10:28:57+00",18.3,20.3,,68.5,709,400,17,1017.44,67.7,0
"2019-09-17 10:33:57+00",19.3,22.3,,68.5,713,474,31,1017.53,67.6,0
"2019-09-17 10:38:57+00",18.7,23.7,,68.5,700,456,29,1017.56,67.6,0
"2019-09-17 10:43:57+00",17.9,22.9,,68.4,711,373,36,1017.63,67.5,0
"2019-09-17 10:48:57+00",19.5,23.5,,68.4,799,394,22,1017.6,67.5,0
"2019-09-17 10:53:57+00",18.6,23.6,,68.4,719,409,44,1017.71,67.5,0
"2019-09-17 10:58:57+00",15.9,17.9,,68.4,635,321,40,1017.77,67.6,0
"2019-09-17 11:03:57+00",19.9,24.9,,68.5,841,336,26,1017.83,67.6,0
"2019-09-17 11:08:57+00",18.6,21.6,,68.4,753,357,15,1017.92,67.7,0
"2019-09-17 11:13:57+00",17.4,21.4,,68.5,715,328,27,1017.95,67.7,11.5
"2019-09-17 11:18:57+00",20.2,23.2,,68.5,822,385,29,1018.05,68,29.2
"2019-09-17 11:23:57+00",19.7,22.7,,68.6,784,407,37,1018.05,68.4,36.9
"2019-09-17 11:28:57+00",19.4,22.4,,68.7,796,366,32,1018.11,68.8,37.6
"2019-09-17 11:33:57+00",16.2,20.2,,68.8,683,274,37,1018.21,69,43.1
"2019-09-17 11:38:57+00",16.8,18.8,,68.6,697,311,44,1018.34,68.9,12.4
"2019-09-17 11:43:57+00",16.9,19.9,,68.5,661,360,41,1018.28,68.6,23.4
"2019-09-17 11:48:57+00",16.9,20.9,,68.7,682,312,58,1018.24,68.7,37.5
"2019-09-17 11:53:57+00",22.2,28.2,,68.8,862,491,40,1018.3,68.8,81.4
"2019-09-17 11:58:57+00",21.6,24.6,,68.8,870,430,27,1018.34,69.2,112.7
"2019-09-17 12:03:57+00",21.4,24.4,,68.7,885,398,31,1018.42,69.3,118.4
"2019-09-17 12:08:57+00",21.0,26.0,,68.8,786,511,38,1018.46,69.4,118
"2019-09-17 12:13:57+00",18.2,22.2,,68.8,764,326,38,1018.55,69.7,128.9
"2019-09-17 12:18:57+00",19.0,23.0,,68.9,765,385,18,1018.57,69.8,136.8
"2019-09-17 12:23:57+00",16.7,19.7,,68.9,681,319,48,1018.74,70,146.3
"2019-09-17 12:28:57+00",20.3,22.3,,68.8,768,481,37,1018.72,70,157.7
"2019-09-17 12:33:57+00",18.5,21.5,,68.9,732,386,46,1018.85,70.1,167.4
"2019-09-17 12:38:57+00",17.8,21.8,,68.9,766,275,33,1019,70.3,175.4
"2019-09-17 12:43:57+00",17.5,19.5,,68.9,683,384,46,1019.07,70.3,184.7
"2019-09-17 12:48:57+00",19.7,22.7,,68.8,860,256,51,1019.14,70.4,191.3
"2019-09-17 12:53:57+00",18.5,23.5,,69,794,257,55,1019.17,70.6,202.4
"2019-09-17 12:58:57+00",17.5,20.5,,69.1,723,320,64,1019.19,70.9,208.5
"2019-09-17 13:03:57+00",21.9,25.9,,68.9,848,487,29,1019.27,70.7,219.2
"2019-09-17 13:08:57+00",16.9,20.9,,69.2,737,240,69,1019.31,70.9,225
"2019-09-17 13:13:57+00",19.2,23.2,,69,818,297,39,1019.3,71,233.1
"2019-09-17 13:18:57+00",17.9,20.9,,69.3,777,269,53,1019.39,71.2,242.2
"2019-09-17 13:23:57+00",16.7,18.7,,69.4,712,277,46,1019.49,71.5,248.7
"2019-09-17 13:28:57+00",18.7,22.7,,69.6,782,318,48,1019.54,71.5,258.6
"2019-09-17 13:33:57+00",22.2,24.2,,69.1,952,328,16,1019.62,71.4,256.4
"2019-09-17 13:38:57+00",16.2,17.2,,69.2,685,273,35,1019.75,71.5,271.7
"2019-09-17 13:43:57+00",18.8,21.8,,69.4,775,337,40,1019.76,71.6,271.5
"2019-09-17 13:48:57+00",18.4,20.4,,69.3,780,314,29,1019.81,71.7,292.6
"2019-09-17 13:53:57+00",17.6,20.6,,69.7,776,169,74,1019.76,72,301.9
"2019-09-17 13:58:57+00",18.5,21.5,,69.5,779,299,56,1019.77,72.2,309.2
"2019-09-17 14:03:57+00",18.1,22.1,,68.9,780,264,59,1019.94,71.9,318.1
"2019-09-17 14:08:57+00",20.1,23.1,,69,771,467,25,1019.86,72,325.7
"2019-09-17 14:13:57+00",18.1,21.1,,69.1,725,371,57,1019.89,71.8,335.9
"2019-09-17 14:18:57+00",20.8,23.8,,69.1,906,301,42,1019.86,71.7,346.2
"2019-09-17 14:23:57+00",20.8,22.8,,69,788,486,34,1019.91,71.7,353.5
"2019-09-17 14:28:57+00",17.9,20.9,,69.1,758,299,27,1019.96,71.7,361.4
"2019-09-17 14:33:57+00",19.3,22.3,,69.3,729,455,26,1019.94,71.9,368.9
"2019-09-17 14:38:57+00",17.7,21.7,,69.5,771,238,79,1019.93,72.1,376.6
"2019-09-17 14:43:57+00",19.0,22.0,,68.8,809,328,14,1019.96,72.1,385.2
"2019-09-17 14:48:57+00",20.4,23.4,,69.2,745,506,19,1019.99,72.2,392.2
"2019-09-17 14:53:57+00",20.7,22.7,,69,736,537,27,1020.01,71.8,402.4
"2019-09-17 14:58:57+00",17.8,19.8,,69,749,307,48,1020,71.9,407.2
"2019-09-17 15:03:57+00",17.7,20.7,,69.1,767,343,21,1020.09,72.2,412.1
"2019-09-17 15:08:57+00",16.8,18.8,,69.1,704,283,47,1020.05,72.3,419.2
"2019-09-17 15:13:57+00",16.9,18.9,,68.9,681,330,27,1020.04,72.2,425.4
"2019-09-17 15:18:57+00",17.5,19.5,,68.8,725,317,30,1020.09,72.2,432
"2019-09-17 15:23:57+00",15.7,17.7,,69,650,284,65,1020.1,72,437.4
"2019-09-17 15:28:57+00",16.9,21.9,,68.8,662,363,51,1020.09,72,441.9
"2019-09-17 15:33:57+00",18.5,20.5,,68.9,715,406,26,1020.15,72,448.8
"2019-09-17 15:38:57+00",19.0,21.0,,68.8,781,336,7,1020.12,72.2,453.2
"2019-09-17 15:43:57+00",16.3,19.3,,68.8,690,279,25,1020.03,72.1,456.5
"2019-09-17 15:48:57+00",18.6,21.6,,68.8,674,466,20,1020.08,71.6,463.4
"2019-09-17 15:53:57+00",15.1,17.1,,69.1,601,296,31,1020.18,72,465.2
"2019-09-17 15:58:57+00",16.1,19.1,,68.6,602,388,37,1020.2,71.7,468.6
"2019-09-17 16:03:57+00",16.7,19.7,,69.1,690,282,69,1020.18,72.1,470
"2019-09-17 16:08:57+00",14.3,16.3,,68.7,626,177,50,1020.2,72.3,470.4
"2019-09-17 16:13:57+00",17.4,20.4,,69,726,305,17,1020.2,72.5,474.1
"2019-09-17 16:18:57+00",15.9,18.9,,68.9,623,332,36,1020.22,72.4,477.3
"2019-09-17 16:23:57+00",15.6,17.6,,69.1,627,314,35,1020.18,72.3,419.2
"2019-09-17 16:28:57+00",14.4,17.4,,69.3,570,298,73,1020.22,72.5,481.2
"2019-09-17 16:33:57+00",18.5,20.5,,69.1,760,349,20,1020.16,72.7,480.2
"2019-09-17 16:38:57+00",13.1,15.1,,68.9,543,229,71,1020.16,72.7,481.7
"2019-09-17 16:43:57+00",14.9,15.9,,68.9,485,422,18,1020.1,72.5,482.9
"2019-09-17 16:48:57+00",14.7,16.7,,69.2,456,422,35,1020.07,72.4,484.5
"2019-09-17 16:53:57+00",16.4,19.4,,68.8,593,411,7,1020.01,72.1,483.9
"2019-09-17 16:58:57+00",14.5,17.5,,68.6,561,310,20,1019.99,72.1,485.3
"2019-09-17 17:03:57+00",13.4,16.4,,68.9,516,306,36,1020.02,72.2,482.3
"2019-09-17 17:08:57+00",14.1,16.1,,69.1,584,258,37,1019.99,72.6,480
"2019-09-17 17:13:57+00",13.6,14.6,,69,582,217,39,1019.94,72.5,478.4
"2019-09-17 17:18:57+00",16.0,19.0,,68.7,580,403,8,1019.96,72.5,474.9
"2019-09-17 17:23:57+00",12.2,13.2,,68.8,435,301,20,1019.96,72.1,472.6
"2019-09-17 17:28:57+00",11.8,14.8,,68.8,458,253,53,1019.94,72.4,470.7
"2019-09-17 17:33:57+00",13.7,15.7,,68.6,430,390,15,1019.89,72.6,464.8
"2019-09-17 17:38:57+00",12.9,14.9,,69,514,238,75,1019.85,72.7,462.4
"2019-09-17 17:43:57+00",12.8,14.8,,69,519,239,47,1019.9,72.7,457.3
"2019-09-17 17:48:57+00",13.7,15.7,,68.9,383,424,-25,1019.86,72.6,458.8
"2019-09-17 17:53:57+00",13.1,15.1,,69,468,324,19,1019.81,72.7,451.2
"2019-09-17 17:58:57+00",13.9,15.9,,69.1,523,330,0,1019.73,72.6,447.3
"2019-09-17 18:03:57+00",12.1,14.1,,69,439,297,-1,1019.71,72.6,444.1
"2019-09-17 18:08:57+00",12.0,13.0,,68.9,405,324,12,1019.66,72.7,436.5
"2019-09-17 18:13:57+00",12.9,16.9,,69.2,459,292,43,1019.62,72.6,433
"2019-09-17 18:18:57+00",14.9,16.9,,68.9,639,210,33,1019.52,72.7,426.4
"2019-09-17 18:23:57+00",11.5,13.5,,68.9,439,242,32,1019.46,72.8,419.5
"2019-09-17 18:28:57+00",11.7,14.7,,69.2,447,257,6,1019.45,73.1,414
"2019-09-17 18:33:57+00",11.8,13.8,,69.1,404,311,32,1019.46,72.7,409.8
"2019-09-17 18:38:57+00",11.6,13.6,,69.1,354,344,-6,1019.43,72.6,403.5
"2019-09-17 18:43:57+00",10.8,13.8,,69,464,143,37,1019.41,72.5,395.5
"2019-09-17 18:48:57+00",12.0,14.0,,68.9,536,24,7,1019.36,72.7,385.7
"2019-09-17 18:53:57+00",10.9,12.9,,69.3,483,46,53,1019.28,72.9,377.2
"2019-09-17 18:58:57+00",13.4,18.4,,69.3,594,54,18,1019.27,73,369
"2019-09-17 19:03:57+00",13.9,17.9,,69.2,623,43,62,1019.16,72.9,360.4
"2019-09-17 19:08:57+00",12.1,15.1,,69.4,514,163,43,1019.19,73.1,351.7
"2019-09-17 19:13:57+00",14.3,16.3,,69.1,641,40,48,1019.12,72.9,345.5
"2019-09-17 19:18:57+00",12.3,15.3,,69.3,487,253,12,1019.09,72.9,338
"2019-09-17 19:23:57+00",11.6,13.6,,69.5,468,218,12,1018.97,73.1,329.3
"2019-09-17 19:28:57+00",12.2,14.2,,69.7,514,206,39,1018.94,73,320.8
"2019-09-17 19:33:57+00",10.7,12.7,,69.5,466,86,46,1018.95,73,310.5
"2019-09-17 19:38:57+00",12.2,14.2,,69.3,508,196,35,1018.87,73.1,303.1
"2019-09-17 19:43:57+00",11.8,13.8,,68.8,519,93,7,1018.86,73,294.9
"2019-09-17 19:48:57+00",14.2,15.2,,69,626,85,20,1018.9,72.9,287
"2019-09-17 19:53:57+00",14.6,16.6,,68.9,650,27,0,1018.8,72.9,278.3
"2019-09-17 19:58:57+00",12.7,13.7,,68.9,560,94,18,1018.79,72.5,269.9
"2019-09-17 20:03:57+00",12.9,15.9,,69,577,21,13,1018.76,72.5,265.2
"2019-09-17 20:08:57+00",11.2,14.2,,69.3,497,105,72,1018.69,72.7,255.7
"2019-09-17 20:13:57+00",13.0,16.0,,69.3,567,120,25,1018.73,72.9,247.6
"2019-09-17 20:18:57+00",13.8,15.8,,69,622,55,19,1018.57,72.8,240.9
"2019-09-17 20:23:57+00",13.5,15.5,,69.2,610,8,27,1018.56,72.7,231.5
"2019-09-17 20:28:57+00",13.8,15.8,,69.3,605,123,37,1018.58,72.6,223.2
"2019-09-17 20:33:57+00",11.0,13.0,,69.4,485,65,25,1018.57,72.6,218.4
"2019-09-17 20:38:57+00",13.9,15.9,,69.4,612,97,14,1018.47,72.5,209.3
"2019-09-17 20:43:57+00",12.8,14.8,,69.5,553,156,15,1018.48,72.3,202.7
"2019-09-17 20:48:57+00",12.1,14.1,,69.5,536,61,40,1018.51,72,194.6
"2019-09-17 20:53:57+00",13.1,15.1,,69.5,588,47,21,1018.58,72.1,184.8
"2019-09-17 20:58:57+00",11.4,15.4,,69.6,485,103,43,1018.53,72,175.9
"2019-09-17 21:03:57+00",10.1,12.1,,69.3,453,49,34,1018.51,72,167.8
"2019-09-17 21:08:57+00",10.9,12.9,,69.4,476,88,39,1018.54,72.1,157.8
"2019-09-17 21:13:57+00",12.5,15.5,,69.5,556,20,27,1018.54,72,149.9
"2019-09-17 21:18:57+00",11.7,14.7,,69.5,521,55,8,1018.52,71.9,137.1
"2019-09-17 21:23:57+00",9.2,12.2,,69.5,405,95,57,1018.53,71.9,128.4
"2019-09-17 21:28:57+00",11.4,14.4,,69.4,501,66,26,1018.5,71.8,118.6
"2019-09-17 21:33:57+00",11.7,13.7,,69.3,520,9,16,1018.5,71.6,107.7
"2019-09-17 21:38:57+00",12.6,14.6,,69.3,564,65,28,1018.52,71.7,98.2
"2019-09-17 21:43:57+00",11.4,13.4,,69.4,512,54,19,1018.6,71.8,87.6
"2019-09-17 21:48:57+00",9.0,11.0,,69.3,399,35,35,1018.64,71.5,76.8
"2019-09-17 21:53:57+00",10.4,12.4,,69.3,462,38,8,1018.66,71.3,66.4
"2019-09-17 21:58:57+00",11.0,13.0,,69.3,480,90,27,1018.7,71,55.4
"2019-09-17 22:03:57+00",9.9,12.9,,69.1,437,17,14,1018.66,70.9,46.4
"2019-09-17 22:08:57+00",11.0,13.0,,69,490,70,15,1018.65,70.8,37.1
"2019-09-17 22:13:57+00",9.9,11.9,,69,447,28,33,1018.76,70.7,26.9
"2019-09-17 22:18:57+00",10.3,12.3,,68.9,448,79,21,1018.71,70.5,18.3
"2019-09-17 22:23:57+00",9.8,11.8,,68.9,426,86,7,1018.71,70.3,9.7
"2019-09-17 22:28:57+00",9.0,11.0,,68.9,395,98,14,1018.65,70,2.7
"2019-09-17 22:33:57+00",9.3,10.3,,68.8,409,86,24,1018.68,69.6,0
"2019-09-17 22:38:57+00",9.8,10.8,,68.6,430,92,25,1018.71,69.3,0
"2019-09-17 22:43:57+00",9.0,10.0,,68.6,391,70,7,1018.77,69.1,0
"2019-09-17 22:48:57+00",7.5,8.5,,68.5,336,25,23,1018.86,68.8,0
"2019-09-17 22:53:57+00",7.7,8.7,,68.3,338,44,17,1018.94,68.4,0
"2019-09-17 22:58:57+00",7.4,8.4,,68.3,326,4,14,1018.96,68.1,0
"2019-09-17 23:03:57+00",9.1,10.1,,68.5,402,54,24,1018.94,67.7,0
"2019-09-17 23:08:57+00",8.1,9.1,,68.2,364,46,13,1019.04,67.4,0
"2019-09-17 23:13:57+00",7.8,9.8,,68.2,345,45,28,1019,67.1,0
"2019-09-17 23:18:57+00",9.7,11.7,,68.1,416,103,20,1018.96,66.7,0
"2019-09-17 23:23:57+00",9.0,10.0,,68.4,395,72,26,1019.02,66.5,0
"2019-09-17 23:28:57+00",8.0,9.0,,67.9,348,50,19,1019.05,66.3,0
"2019-09-17 23:33:57+00",7.0,8.0,,67.6,303,23,11,1019.05,66.1,0
"2019-09-17 23:38:57+00",8.4,9.4,,68,365,56,18,1019.12,65.8,0
"2019-09-17 23:43:57+00",8.1,9.1,,67.8,357,-31,16,1019.09,65.7,0
"2019-09-17 23:48:57+00",7.9,8.9,,68,349,-49,9,1019.17,65.8,0
"2019-09-17 23:53:57+00",7.3,8.3,,67.9,321,20,22,1019.16,65.8,0
"2019-09-17 23:58:57+00",7.4,8.4,,67.7,330,-5,22,1019.27,65.7,0
